| time (UTC) | temp C | wind direction | speed KPH | gust KPH | rain 1hr cm | rain 24hr cm | rain mn cm | humidity % | barometer mb |
| 20260510004557 | 7 | 174 | 0.0 | 3.2 | 0.05 | 0.97 | 0.97 | 97 | 1012.2 |
| 20260510003048 | 7 | 189 | 0.0 | 3.2 | 0.05 | 0.94 | 0.94 | 97 | 1012.2 |
| 20260510001547 | 7 | 208 | 0.0 | 0.0 | 0.08 | 0.94 | 0.94 | 97 | 1012.6 |
| 20260510000047 | 7 | 205 | 0.0 | 3.2 | 0.10 | 0.94 | 0.94 | 97 | 1012.6 |
| 20260509234600 | 7 | 210 | 0.0 | 1.6 | 0.10 | 0.91 | 0.91 | 97 | 1012.6 |
| 20260509233045 | 7 | 162 | 0.0 | 3.2 | 0.10 | 0.89 | 0.89 | 97 | 1012.4 |
| 20260509231546 | 7 | 210 | 0.0 | 0.0 | 0.10 | 0.86 | 0.86 | 97 | 1012.3 |
| 20260509230045 | 7 | 157 | 0.0 | 3.2 | 0.08 | 0.84 | 0.84 | 97 | 1012.1 |
| 20260509224545 | 7 | 251 | 0.0 | 4.8 | 0.08 | 0.81 | 0.81 | 97 | 1012.1 |
| 20260509223043 | 7 | 155 | 0.0 | 3.2 | 0.10 | 0.79 | 0.79 | 97 | 1012.2 |
| 20260509221601 | 7 | 179 | 0.0 | 3.2 | 0.18 | 0.76 | 0.76 | 97 | 1012.4 |
| 20260509220048 | 8 | 269 | 0.0 | 1.6 | 0.23 | 0.76 | 0.76 | 96 | 1012.6 |
| 20260509214540 | 8 | 258 | 0.0 | 1.6 | 0.36 | 0.71 | 0.71 | 96 | 1012.6 |
| 20260509213041 | 8 | 272 | 0.0 | 1.6 | 0.33 | 0.69 | 0.69 | 96 | 1012.7 |
| 20260509211539 | 8 | 252 | 0.0 | 1.6 | 0.25 | 0.58 | 0.58 | 96 | 1012.7 |
| 20260509210042 | 8 | 260 | 0.0 | 3.2 | 0.20 | 0.53 | 0.53 | 96 | 1012.7 |
| 20260509204538 | 8 | 227 | 0.0 | 1.6 | 0.05 | 0.38 | 0.38 | 96 | 1012.8 |
| 20260509203044 | 8 | 229 | 0.0 | 4.8 | 0.03 | 0.36 | 0.36 | 96 | 1012.6 |
| 20260509201536 | 8 | 198 | 0.0 | 0.0 | 0.00 | 0.33 | 0.33 | 96 | 1012.6 |
| 20260509200042 | 8 | 198 | 0.0 | 1.6 | 0.00 | 0.33 | 0.33 | 96 | 1012.7 |
| 20260509194536 | 8 | 215 | 0.0 | 3.2 | 0.00 | 0.33 | 0.33 | 96 | 1012.7 |
| 20260509193041 | 8 | 219 | 0.0 | 3.2 | 0.00 | 0.33 | 0.33 | 95 | 1012.6 |
| 20260509191534 | 8 | 201 | 0.0 | 4.8 | 0.00 | 0.33 | 0.33 | 96 | 1012.2 |
| 20260509190043 | 8 | 274 | 0.0 | 3.2 | 0.00 | 0.33 | 0.33 | 96 | 1012.6 |
| 20260509184534 | 8 | 173 | 0.0 | 6.4 | 0.03 | 0.33 | 0.33 | 96 | 1012.9 |
| 20260509183034 | 8 | 233 | 0.0 | 4.8 | 0.05 | 0.33 | 0.33 | 95 | 1013.0 |
| 20260509181524 | 8 | 231 | 0.0 | 1.6 | 0.08 | 0.33 | 0.33 | 96 | 1013.6 |
| 20260509180023 | 8 | 227 | 0.0 | 3.2 | 0.08 | 0.33 | 0.33 | 95 | 1013.4 |
| 20260509174526 | 8 | 250 | 0.0 | 1.6 | 0.05 | 0.30 | 0.30 | 95 | 1013.7 |
| 20260509173021 | 8 | 249 | 0.0 | 1.6 | 0.08 | 0.28 | 0.28 | 95 | 1013.7 |
| 20260509171523 | 8 | 208 | 0.0 | 1.6 | 0.05 | 0.25 | 0.25 | 95 | 1013.9 |
| 20260509170029 | 7 | 198 | 0.0 | 0.0 | 0.08 | 0.25 | 0.25 | 95 | 1014.1 |
| 20260509164518 | 7 | 197 | 0.0 | 0.0 | 0.10 | 0.25 | 0.25 | 95 | 1014.1 |
| 20260509163017 | 7 | 196 | 0.0 | 1.6 | 0.05 | 0.20 | 0.20 | 94 | 1014.2 |
| 20260509161517 | 7 | 190 | 0.0 | 1.6 | 0.08 | 0.20 | 0.20 | 94 | 1014.0 |
| 20260509160019 | 7 | 227 | 0.0 | 3.2 | 0.05 | 0.18 | 0.18 | 94 | 1013.9 |
| 20260509154516 | 7 | 267 | 0.0 | 1.6 | 0.05 | 0.15 | 0.15 | 93 | 1014.2 |
| 20260509153016 | 7 | 272 | 0.0 | 0.0 | 0.08 | 0.15 | 0.15 | 93 | 1014.5 |
| 20260509151515 | 7 | 272 | 0.0 | 0.0 | 0.05 | 0.13 | 0.13 | 93 | 1014.6 |
| 20260509150014 | 7 | 272 | 0.0 | 0.0 | 0.08 | 0.13 | 0.13 | 91 | 1014.8 |
| 20260509144513 | 7 | 272 | 0.0 | 0.0 | 0.08 | 0.10 | 0.10 | 92 | 1014.9 |
| 20260509143015 | 7 | 272 | 0.0 | 0.0 | 0.05 | 0.08 | 0.08 | 92 | 1015.1 |
| 20260509141520 | 7 | 272 | 0.0 | 0.0 | 0.08 | 0.08 | 0.08 | 92 | 1015.1 |
| 20260509140011 | 7 | 272 | 0.0 | 0.0 | 0.05 | 0.05 | 0.05 | 91 | 1015.0 |
| 20260509134511 | 6 | 272 | 0.0 | 0.0 | 0.03 | 0.03 | 0.03 | 90 | 1014.9 |
| 20260509133012 | 7 | 272 | 0.0 | 0.0 | 0.03 | 0.03 | 0.03 | 89 | 1014.6 |
| 20260509131515 | 7 | 272 | 0.0 | 0.0 | 0.00 | 0.00 | 0.00 | 87 | 1014.6 |
| 20260509130009 | 7 | 272 | 0.0 | 0.0 | 0.00 | 0.00 | 0.00 | 85 | 1014.7 |
| 20260509124510 | 7 | 272 | 0.0 | 0.0 | 0.00 | 0.00 | 0.00 | 83 | 1014.8 |
| 20260509123018 | 7 | 272 | 0.0 | 0.0 | 0.00 | 0.00 | 0.00 | 80 | 1014.9 |
| 20260509121503 | 7 | 272 | 0.0 | 0.0 | 0.00 | 0.00 | 0.00 | 79 | 1015.0 |
| 20260509120108 | 7 | 272 | 0.0 | 1.6 | 0.00 | 0.00 | 0.00 | 84 | 1015.0 |
| 20260509114611 | 6 | 272 | 0.0 | 3.2 | 0.00 | 0.00 | 0.00 | 86 | 1015.2 |
| 20260509113104 | 5 | 241 | 0.0 | 0.0 | 0.00 | 0.00 | 0.00 | 87 | 1014.8 |
| 20260509111558 | 5 | 241 | 0.0 | 1.6 | 0.00 | 0.00 | 0.00 | 88 | 1015.0 |
| 20260509110105 | 5 | 241 | 0.0 | 1.6 | 0.00 | 0.00 | 0.00 | 87 | 1014.9 |
| 20260509104600 | 4 | 290 | 0.0 | 0.0 | 0.00 | 0.00 | 0.00 | 87 | 1014.9 |
| 20260509103053 | 3 | 290 | 0.0 | 0.0 | 0.00 | 0.00 | 0.00 | 88 | 1014.8 |
| 20260509101552 | 3 | 290 | 0.0 | 0.0 | 0.00 | 0.00 | 0.00 | 88 | 1014.8 |
| 20260509100049 | 3 | 290 | 0.0 | 0.0 | 0.00 | 0.00 | 0.00 | 86 | 1014.6 |
| 20260509094548 | 3 | 290 | 0.0 | 0.0 | 0.00 | 0.00 | 0.00 | 86 | 1014.4 |
| 20260509093048 | 3 | 290 | 0.0 | 1.6 | 0.00 | 0.00 | 0.00 | 88 | 1014.3 |
| 20260509091545 | 3 | 290 | 0.0 | 0.0 | 0.00 | 0.00 | 0.00 | 87 | 1014.1 |
| 20260509090049 | 3 | 290 | 0.0 | 0.0 | 0.00 | 0.00 | 0.00 | 86 | 1014.1 |
| 20260509084542 | 3 | 290 | 0.0 | 0.0 | 0.00 | 0.00 | 0.00 | 85 | 1014.1 |
| 20260509083046 | 3 | 290 | 0.0 | 0.0 | 0.00 | 0.00 | 0.00 | 85 | 1013.8 |
| 20260509081543 | 3 | 290 | 0.0 | 0.0 | 0.00 | 0.00 | 0.00 | 84 | 1014.1 |
| 20260509080037 | 3 | 290 | 0.0 | 0.0 | 0.00 | 0.00 | 0.00 | 83 | 1014.0 |
| 20260509074538 | 3 | 290 | 0.0 | 0.0 | 0.00 | 0.00 | 0.00 | 83 | 1013.9 |
| 20260509073036 | 3 | 290 | 0.0 | 0.0 | 0.00 | 0.00 | 0.00 | 82 | 1013.9 |
| 20260509071532 | 4 | 290 | 0.0 | 0.0 | 0.00 | 0.00 | 0.00 | 81 | 1013.8 |
| 20260509070033 | 4 | 290 | 0.0 | 0.0 | 0.00 | 0.00 | 0.00 | 81 | 1013.8 |
| 20260509064532 | 4 | 290 | 0.0 | 0.0 | 0.00 | 0.00 | 0.00 | 80 | 1013.6 |
| 20260509063031 | 4 | 290 | 0.0 | 1.6 | 0.00 | 0.00 | 0.00 | 81 | 1013.5 |
| 20260509061529 | 4 | 290 | 0.0 | 0.0 | 0.00 | 0.00 | 0.00 | 81 | 1013.7 |
| 20260509060028 | 4 | 290 | 0.0 | 0.0 | 0.00 | 0.00 | 0.00 | 79 | 1013.7 |
| 20260509054538 | 4 | 290 | 0.0 | 0.0 | 0.00 | 0.00 | 0.00 | 77 | 1013.8 |
| 20260509053057 | 5 | 290 | 0.0 | 0.0 | 0.00 | 0.00 | 0.00 | 75 | 1013.7 |
| 20260509051524 | 5 | 290 | 0.0 | 0.0 | 0.00 | 0.00 | 0.00 | 74 | 1013.6 |
| 20260509050034 | 5 | 290 | 0.0 | 0.0 | 0.00 | 0.00 | 0.00 | 72 | 1013.6 |
| 20260509044614 | 6 | 290 | 0.0 | 0.0 | 0.00 | 0.00 | 0.00 | 72 | 1013.5 |
| 20260509043012 | 6 | 290 | 0.0 | 0.0 | 0.00 | 0.00 | 0.00 | 72 | 1013.6 |
| 20260509041510 | 6 | 290 | 0.0 | 0.0 | 0.00 | 0.00 | 0.00 | 70 | 1013.4 |
| 20260509040006 | 6 | 290 | 0.0 | 0.0 | 0.00 | 0.00 | 0.00 | 68 | 1013.3 |
| 20260509034505 | 7 | 290 | 0.0 | 1.6 | 0.00 | 0.00 | 0.00 | 67 | 1013.3 |
| 20260509033005 | 7 | 290 | 0.0 | 1.6 | 0.00 | 0.00 | 0.00 | 66 | 1013.2 |
| 20260509031503 | 7 | 290 | 0.0 | 1.6 | 0.00 | 0.00 | 0.00 | 65 | 1013.1 |
| 20260509030008 | 7 | 290 | 0.0 | 0.0 | 0.00 | 0.00 | 0.00 | 64 | 1013.0 |
| 20260509024601 | 7 | 290 | 0.0 | 0.0 | 0.00 | 0.00 | 0.00 | 62 | 1012.9 |
| 20260509023100 | 8 | 290 | 0.0 | 0.0 | 0.00 | 0.00 | 0.00 | 61 | 1012.9 |
| 20260509021601 | 8 | 290 | 0.0 | 0.0 | 0.00 | 0.00 | 0.00 | 59 | 1012.8 |
| 20260509020056 | 9 | 290 | 0.0 | 0.0 | 0.00 | 0.00 | 0.00 | 57 | 1012.5 |
| 20260509014554 | 9 | 290 | 0.0 | 1.6 | 0.00 | 0.00 | 0.00 | 55 | 1012.3 |
| 20260509013108 | 10 | 291 | 0.0 | 3.2 | 0.00 | 0.00 | 0.00 | 54 | 1012.0 |
| 20260509011559 | 10 | 291 | 0.0 | 8.0 | 0.00 | 0.00 | 0.00 | 52 | 1011.8 |
| 20260509010047 | 10 | 295 | 0.0 | 6.4 | 0.00 | 0.00 | 0.00 | 50 | 1011.5 |